GFSWCAN_con_mucape_021.txt.gz
CAPE
46 47 54 47 64 87 96 104 120 145 138 142 111 109 101 109 69 52 73 18 34 0 0 0 0 1 0 0 0 0 6 51 74 196 280 127 137 233 364 369 342 520 539 455 301 75 22 2 53 182 82 31 0 3
67 59 58 55 50 33 61 76 123 107 123 93 90 90 44 38 118 63 70 3 4 0 0 0 1 0 0 0 0 0 3 56 48 54 48 43 274 215 623 546 369 392 483 362 146 79 14 1 93 109 90 106 129 423
108 67 60 57 53 41 84 102 100 92 98 36 32 49 55 89 8 54 54 9 3 0 0 0 0 0 0 0 0 0 2 54 73 74 59 57 151 183 688 683 469 363 219 305 303 65 4 63 135 111 125 113 72 61
129 80 55 75 88 81 72 69 93 61 48 33 36 28 24 8 36 45 55 22 0 0 0 0 0 0 0 0 0 0 11 53 84 97 77 47 27 12 343 235 581 86 308 104 54 0 0 24 96 108 135 159 133 105
153 119 102 86 51 41 46 67 72 43 33 16 31 42 36 51 53 74 39 0 3 0 0 1 7 20 6 1 0 0 0 44 0 13 57 39 29 65 53 82 67 99 22 96 70 18 16 34 59 94 130 80 113 126
127 89 58 58 65 44 51 43 36 29 41 27 35 29 40 69 10 2 0 13 14 1 0 29 30 26 8 0 0 0 56 18 1 0 4 7 17 31 48 44 34 72 85 38 20 26 19 26 45 8 2 8 48 58
56 53 54 62 55 64 57 36 30 33 24 27 51 42 39 52 11 0 0 2 0 6 20 35 55 34 17 5 0 0 14 0 3 34 3 2 58 23 33 34 64 68 82 34 20 61 44 33 35 42 45 31 2 0
45 39 33 30 38 53 29 24 21 16 13 17 11 1 38 33 17 1 4 0 8 0 29 23 53 23 1 0 0 1 1 0 0 0 0 3 9 39 28 14 51 61 70 31 41 34 34 40 41 29 6 4 8 0
11 17 22 28 51 41 37 43 26 6 0 0 0 0 0 0 2 19 1 9 10 1 2 15 12 72 32 4 1 0 0 0 9 85 2 11 1 11 51 22 21 17 45 109 64 12 46 10 54 36 34 27 20 8
21 14 12 65 44 61 68 29 11 0 0 0 0 0 15 21 3 4 0 0 0 0 0 16 14 21 9 12 0 0 0 24 178 0 31 0 0 2 2 6 7 0 0 0 0 0 0 18 18 17 27 19 3 0
70 77 66 57 62 56 35 24 4 0 0 0 2 9 0 0 1 2 0 0 20 0 11 23 24 32 21 21 7 0 3 11 41 17 50 0 5 32 25 16 2 0 2 0 0 0 0 0 0 0 0 0 0 0
64 73 76 74 46 31 28 19 6 0 0 0 0 0 0 0 0 0 3 9 0 0 0 30 20 17 17 27 26 12 1 13 87 66 54 0 0 20 39 13 0 0 0 0 0 0 0 0 0 0 0 0 0 0
36 25 29 34 5 9 4 0 0 0 0 0 0 0 0 0 17 15 77 59 51 4 0 1 9 9 4 1 7 8 10 53 64 51 0 7 39 52 75 36 0 0 0 0 0 0 0 0 0 0 0 0 0 0
0 0 0 0 0 0 0 0 0 0 5 0 0 16 7 11 45 39 25 27 29 6 2 2 0 0 0 1 0 15 48 108 58 0 0 1 19 58 64 22 12 0 0 0 0 0 0 0 0 0 0 0 0 0
0 0 0 0 0 0 6 3 3 0 5 8 0 3 8 12 25 40 26 21 24 38 11 5 2 1 0 14 81 65 49 12 31 0 0 7 5 4 12 14 9 7 0 0 0 0 0 0 0 0 0 0 0 0
0 0 0 0 0 0 3 0 11 1 0 0 0 0 1 3 32 30 7 9 0 2 10 1 15 9 0 43 39 27 6 1 21 2 3 14 11 12 30 15 5 0 0 0 0 0 0 0 0 0 0 0 12 13
0 0 0 0 0 0 0 2 4 0 0 5 13 0 0 0 0 0 8 11 2 0 20 22 28 0 4 31 46 57 0 0 0 26 0 0 0 0 0 0 0 0 2 0 2 8 12 7 5 12 20 21 22 26
0 0 0 0 0 0 0 0 0 0 0 0 7 4 0 0 0 0 3 6 5 0 31 21 17 42 45 21 39 32 9 6 5 22 14 3 7 16 6 9 7 11 20 19 17 22 25 36 22 15 11 21 23 43
0 0 0 0 0 0 0 0 0 0 0 0 0 0 0 0 0 0 0 0 0 0 1 16 10 21 35 38 34 23 15 21 34 12 5 7 8 6 7 15 27 51 45 62 64 50 32 25 15 0 0 3 33 39
0 0 0 0 0 0 0 0 0 0 0 0 0 0 0 0 0 0 0 0 0 0 1 15 21 16 26 16 8 5 9 0 5 12 7 10 9 24 68 69 91 85 72 44 24 10 25 24 9 0 0 2 21 38
0 0 0 0 0 0 0 0 0 0 2 0 0 0 0 0 0 0 0 0 0 0 1 0 0 0 4 3 1 3 13 3 51 70 108 127 66 22 10 40 14 17 19 10 2 2 0 4 2 8 7 1 0 0
0 0 0 0 0 0 0 0 0 0 0 0 0 0 0 0 0 0 0 0 2 22 11 0 5 8 1 6 22 17 15 50 193 51 29 17 29 135 5 8 9 8 13 12 7 3 1 1 1 0 0 2 3 3
0 0 0 0 0 0 0 0 0 0 0 0 0 0 0 1 0 0 0 5 13 9 6 16 16 35 33 76 50 34 49 99 146 144 100 91 76 62 37 31 24 16 5 0 0 0 0 0 0 0 0 0 0 2
0 0 0 0 0 0 0 0 0 0 1 0 0 0 0 0 0 0 0 5 30 11 92 55 52 119 79 14 22 26 31 37 25 27 19 12 5 6 5 2 1 1 0 0 0 0 0 0 0 0 0 0 0 0
0 0 0 0 0 0 0 0 0 0 0 0 0 0 4 0 1 40 108 163 127 85 72 80 97 25 0 0 0 0 0 0 0 0 0 0 0 0 0 0 0 0 0 0 0 0 0 0 0 0 0 0 0 5
0 0 0 0 0 0 0 0 0 0 0 0 0 0 0 3 23 54 149 164 110 78 57 9 0 0 0 0 0 0 0 0 0 0 0 0 0 0 0 0 0 0 0 0 0 0 0 0 0 0 0 0 0 0
0 0 0 0 0 0 0 0 0 0 0 0 3 5 3 28 42 100 254 42 58 26 7 3 4 5 3 1 0 0 0 0 0 0 0 0 0 0 0 0 0 0 0 0 0 0 0 0 0 0 0 0 0 0
0 0 0 0 0 0 0 0 0 0 0 0 0 13 7 12 12 9 6 29 17 20 27 13 0 1 0 0 0 0 0 0 0 0 0 0 0 0 0 0 0 0 0 0 0 0 0 0 0 0 0 0 7 57
12 7 2 0 0 0 0 0 0 0 0 0 0 0 0 0 0 2 1 24 25 22 0 0 3 4 0 0 0 0 0 0 0 0 0 0 0 0 0 0 0 0 0 0 0 0 2 5 4 0 0 0 0 8
42 26 0 2 1 0 0 0 0 0 0 0 0 6 15 6 3 3 1 1 1 2 4 0 0 0 0 0 0 0 0 0 0 0 0 0 0 0 0 0 0 0 0 0 1 1 0 0 0 0 0 0 0 0
49 48 29 11 136 11 0 0 0 0 0 0 0 1 0 1 0 9 2 1 1 3 0 0 0 0 0 0 0 0 0 0 0 0 0 0 0 0 0 0 0 0 0 0 0 0 0 0 0 0 0 0 0 0
168 141 163 208 78 92 6 57 148 21 9 6 2 0 0 8 1 0 3 0 0 0 0 0 0 0 0 0 0 0 0 0 0 0 0 0 0 0 0 0 0 0 0 0 0 0 0 0 0 0 0 0 0 0
127 225 212 207 224 168 217 191 145 12 16 21 1 8 5 0 22 52 30 0 0 0 0 0 0 0 0 0 0 0 0 0 0 0 0 0 0 0 0 0 0 0 0 0 0 0 0 0 0 0 0 0 0 0

GFSWCAN_con_mucape_024.txt.gz
CAPE
112 152 187 135 91 76 70 50 76 85 120 119 122 148 114 118 96 193 129 96 50 0 0 35 0 0 0 0 0 2 0 86 127 280 229 226 293 183 190 221 419 356 378 289 445 483 433 76 369 405 610 772 401 332
157 174 146 107 81 70 76 54 65 105 101 126 74 66 65 51 33 71 50 161 266 58 0 8 0 0 1 0 0 1 1 86 81 74 101 74 336 428 422 387 717 475 383 398 670 658 174 83 278 293 475 557 939 540
131 175 174 155 119 116 117 112 99 79 85 55 25 26 25 29 4 57 161 33 37 2 0 1 1 0 0 0 0 0 1 18 81 56 48 15 148 399 524 467 626 862 811 632 562 136 97 51 6 62 126 160 324 733
49 85 144 112 73 55 53 62 61 44 20 23 20 27 34 26 14 35 99 234 114 0 0 0 0 0 1 2 0 0 0 7 36 57 43 94 85 180 725 710 749 193 574 653 351 98 32 16 11 97 102 110 108 258
15 28 56 60 75 70 62 49 26 17 19 12 16 37 30 23 31 118 112 79 67 66 0 0 0 2 0 0 0 1 0 22 49 21 51 73 11 20 280 204 107 131 412 697 324 77 96 18 12 72 70 35 33 104
49 65 54 63 90 91 57 42 23 32 36 32 18 57 28 35 10 69 39 1 6 60 0 9 7 42 73 24 7 11 0 0 0 18 24 0 43 66 333 59 35 94 125 94 365 95 7 9 23 40 17 23 31 47
36 28 33 36 36 47 30 26 25 26 21 21 33 24 17 49 73 62 0 1 0 0 42 46 52 135 60 33 1 0 6 6 8 0 0 0 19 7 7 25 43 81 76 82 93 2 2 10 39 5 19 12 17 20
7 13 17 28 50 39 42 47 37 23 6 4 1 0 22 41 31 0 7 3 1 0 41 31 13 152 38 7 8 0 0 0 0 1 0 2 0 7 31 27 111 182 75 26 20 28 29 6 0 5 0 17 6 0
35 35 42 50 60 68 48 33 24 16 0 0 0 0 1 8 1 11 9 17 19 0 0 0 7 83 85 40 4 0 0 0 0 0 0 0 0 14 9 47 129 231 79 15 0 11 20 8 0 0 0 1 1 0
61 56 48 42 49 46 38 27 12 1 0 0 2 64 56 61 0 1 1 7 0 0 18 15 17 70 40 98 0 0 0 0 0 10 43 0 23 25 34 54 90 49 36 11 0 0 4 6 1 1 1 4 15 27
31 28 25 22 16 10 18 9 0 0 0 13 15 15 41 0 10 30 21 0 0 0 30 37 50 70 57 63 97 22 16 27 0 3 0 1 22 1 13 8 0 0 0 0 23 25 11 18 12 31 7 23 7 0
0 0 0 6 4 1 0 0 0 0 0 0 0 0 0 30 23 1 52 0 16 6 23 68 50 35 51 47 68 87 73 82 0 104 0 0 0 2 0 0 28 79 69 70 58 55 79 52 16 7 3 3 0 0
0 0 0 0 0 0 0 0 0 0 0 0 0 0 39 84 102 75 47 22 27 63 23 97 98 76 87 50 119 117 72 43 181 0 0 0 0 0 0 1 25 24 32 21 41 28 6 5 5 9 11 9 13 11
0 0 0 0 0 0 0 0 0 1 0 1 0 0 2 23 42 85 93 26 61 4 11 46 126 80 70 67 66 74 227 155 9 0 1 2 9 0 0 3 57 42 24 5 1 0 0 1 1 2 30 47 36 24
0 0 0 0 0 0 0 0 0 0 0 0 0 1 7 18 50 95 97 146 94 17 23 29 23 25 96 45 67 156 111 34 51 17 24 49 27 23 69 66 55 52 32 9 6 3 0 0 0 0 1 20 39 43
0 0 0 0 0 0 0 0 0 0 0 40 43 75 102 107 119 99 84 122 68 61 113 125 109 45 119 75 94 64 21 37 44 32 16 68 91 151 174 147 60 53 27 15 17 14 16 19 10 2 1 0 0 3
0 0 0 0 0 0 0 0 0 0 61 59 100 60 74 84 77 49 36 28 25 198 211 142 118 124 111 35 5 5 14 112 194 145 166 247 244 246 199 141 127 106 85 75 50 41 71 44 24 4 7 23 18 16
0 0 0 0 0 0 0 0 0 9 34 35 34 48 46 64 33 34 11 9 0 81 116 93 146 80 36 33 13 0 24 133 167 144 139 234 261 211 133 179 181 197 155 161 146 111 83 81 36 18 9 39 30 24
0 0 0 0 0 0 0 0 0 5 13 10 9 14 7 11 13 9 42 49 11 5 23 32 48 63 81 120 131 176 188 191 202 110 106 173 193 254 275 256 252 236 264 198 150 71 84 99 85 29 21 16 12 23
0 0 0 0 0 0 0 0 0 0 0 0 1 0 3 4 30 29 18 31 21 7 11 31 65 117 148 37 28 163 184 183 167 123 107 186 289 236 249 212 187 149 60 30 8 1 23 29 18 12 7 17 30 35
0 0 0 0 0 0 0 0 2 0 0 0 0 0 10 49 113 64 69 65 30 35 71 98 56 8 8 10 10 95 299 284 254 349 301 344 335 112 16 0 0 0 0 0 0 0 0 0 0 0 0 0 0 3
0 0 0 0 0 0 0 0 0 0 1 0 0 6 26 62 53 3 3 4 9 16 3 20 70 76 188 303 483 366 434 306 323 574 172 124 97 258 48 4 3 1 2 4 2 0 0 0 0 0 0 0 0 0
0 0 0 0 0 0 0 0 1 10 17 20 21 7 0 2 0 0 4 0 28 57 122 118 136 69 7 10 9 22 60 132 218 117 296 213 73 10 8 1 0 0 0 0 0 0 0 0 0 0 0 0 0 0
0 0 0 0 0 0 0 0 0 0 15 5 0 0 8 78 136 160 53 90 334 430 475 154 48 1 1 10 0 0 0 0 0 0 0 0 0 0 0 0 0 0 0 0 0 0 0 0 0 0 0 0 0 0
0 0 0 0 0 0 0 0 0 2 24 25 43 99 146 120 161 46 10 168 387 214 8 0 0 0 0 0 0 0 0 0 0 0 0 0 0 0 0 0 0 0 0 0 0 0 0 0 0 0 0 0 0 0
0 0 0 0 0 0 0 66 22 6 5 33 64 75 100 173 82 95 53 97 43 0 0 0 0 0 0 0 0 0 0 0 0 0 0 0 0 0 0 0 0 0 0 0 0 0 0 0 0 0 0 0 0 0
10 91 0 0 0 0 16 1 2 1 50 113 154 226 146 70 45 13 33 24 6 1 0 4 6 0 0 0 0 0 0 0 0 0 0 0 0 0 0 0 0 0 0 0 3 3 0 0 0 0 0 0 17 23
9 0 134 17 0 0 1 50 38 76 131 89 79 78 8 0 2 11 12 39 35 13 19 0 0 0 0 0 0 0 0 0 0 0 0 0 0 0 0 0 0 0 0 11 8 17 27 26 0 0 0 0 0 27
177 216 6 214 10 8 19 47 47 12 10 121 53 0 0 0 0 0 9 3 0 0 0 0 0 0 0 0 0 0 0 0 0 0 0 0 0 0 0 0 0 6 13 14 3 2 0 0 1 0 13 17 20 23
451 262 406 305 263 89 30 10 1 0 2 0 0 0 0 1 0 0 9 6 0 0 0 0 0 0 0 0 0 0 0 0 0 0 0 0 0 0 0 0 0 0 0 0 0 0 0 0 0 24 10 1 0 0
492 481 354 315 364 116 3 0 2 1 4 0 0 0 3 4 0 2 0 0 0 0 0 0 0 0 0 0 0 0 0 0 0 0 0 0 0 0 0 0 0 0 0 0 0 0 0 0 0 0 0 0 0 0
447 432 478 192 388 56 0 10 36 7 2 11 0 0 21 82 34 137 51 0 0 0 0 0 0 0 0 0 0 0 0 0 0 0 0 0 0 0 0 0 0 0 0 0 0 0 0 0 0 0 0 0 0 0
354 68 44 100 218 222 325 190 92 18 13 16 65 63 58 63 63 98 5 0 0 0 0 0 0 0 0 0 0 0 0 0 0 0 0 0 0 0 0 0 0 0 0 0 0 0 0 0 0 0 0 0 0 0

GFSWCAN_con_mucape_030.txt.gz
CAPE
27 36 37 48 59 73 84 87 58 66 70 64 71 77 82 76 141 233 295 438 250 2 1 11 25 47 43 36 2 45 0 78 56 0 0 0 6 5 13 13 67 83 98 35 147 164 57 199 380 226 1233 1299 1226 1131
21 35 55 69 87 84 94 108 91 46 49 50 45 38 21 23 34 100 315 567 241 6 8 2 25 30 58 11 13 22 0 0 56 94 112 0 0 79 186 17 12 68 29 100 147 200 1034 387 1343 1033 793 834 1125 1050
24 47 48 59 64 80 80 59 22 21 32 36 34 25 31 29 29 39 280 236 149 40 13 20 41 80 54 37 0 28 0 3 0 48 0 78 74 116 218 227 309 226 146 234 208 190 811 547 503 617 746 998 1086 1142
17 2 16 28 42 64 55 37 38 41 40 29 18 11 5 7 4 12 237 320 45 56 32 1 41 17 37 34 31 0 0 14 97 5 0 34 36 75 35 0 30 65 45 114 276 1474 745 513 503 510 751 1087 1248 1658
17 9 6 29 50 66 56 42 32 25 12 4 0 0 4 18 17 6 37 83 166 2 2 1 0 0 7 168 27 10 0 1 157 8 1 52 101 61 72 0 104 0 38 46 675 496 188 653 317 613 644 750 918 1107
25 21 29 42 49 51 51 49 27 20 13 9 0 0 1 19 41 35 6 88 95 60 1 0 1 0 83 30 31 0 1 1 12 0 0 8 93 0 110 0 0 0 19 48 58 105 27 24 71 59 25 18 192 218
4 9 19 18 19 27 26 28 17 14 21 11 9 8 2 13 0 20 54 3 2 0 0 0 0 5 39 309 12 24 11 5 9 36 4 5 124 63 150 0 0 0 0 31 0 6 0 0 17 5 0 0 0 0
0 0 0 0 2 4 5 0 2 3 1 0 0 0 0 0 0 0 0 6 3 0 0 0 4 15 151 261 62 45 45 22 23 0 24 1 31 101 0 0 0 8 21 59 46 21 33 11 3 0 8 0 3 0
0 0 0 0 0 0 3 5 0 0 1 0 0 0 0 0 4 43 0 0 0 0 0 0 0 0 7 128 164 61 231 97 90 0 0 2 34 0 0 0 0 1 24 53 101 38 50 59 63 35 0 11 2 3
0 0 0 0 0 0 0 0 0 0 0 0 0 12 57 128 31 2 0 1 8 8 13 0 0 0 8 74 77 23 65 4 0 0 0 0 0 0 0 0 29 58 42 74 71 32 30 32 19 0 40 27 37 15
0 0 0 0 0 0 0 0 0 0 0 16 16 9 10 0 0 0 0 0 0 12 13 0 0 4 1 62 34 58 65 0 0 0 0 0 0 0 0 0 0 15 47 33 24 10 14 22 28 24 36 28 13 0
0 0 0 0 0 0 0 0 0 0 0 0 0 0 2 24 0 0 0 0 0 4 54 8 17 80 0 19 0 0 0 0 0 0 0 0 0 0 0 30 0 0 0 0 0 0 0 2 2 0 4 14 0 28
0 0 0 0 0 0 0 0 0 0 0 3 9 22 0 28 84 8 0 0 0 19 13 50 0 0 34 0 0 0 0 0 51 0 0 0 0 0 0 33 50 0 73 102 81 30 44 92 104 124 139 135 82 79
0 0 0 0 0 0 0 0 0 0 0 12 13 7 115 73 8 0 16 2 66 33 52 68 149 63 43 34 52 42 69 20 0 0 0 0 0 0 46 175 144 133 123 68 64 44 74 55 93 70 124 152 128 106
0 0 0 0 0 0 0 0 0 7 13 34 65 93 44 211 189 175 44 21 201 113 14 248 76 67 61 95 280 111 0 0 0 0 0 2 3 26 125 238 147 82 103 76 48 56 64 56 33 49 73 50 58 56
0 0 0 0 0 0 0 0 33 271 290 128 50 101 105 121 108 137 305 75 162 74 73 11 13 44 72 59 3 0 0 0 0 0 0 18 76 161 223 289 222 274 135 131 95 173 90 83 99 93 89 61 67 64
0 0 0 0 0 0 0 3 50 26 34 33 63 106 95 104 192 102 71 90 158 370 68 14 44 56 73 0 0 18 0 0 0 6 50 46 52 99 113 468 279 222 212 62 66 106 107 0 106 197 178 58 77 39
0 0 0 0 0 0 31 1 69 26 18 50 69 148 206 290 156 320 262 336 231 299 176 27 51 8 0 11 12 15 64 85 153 165 337 568 337 544 367 469 429 307 322 280 44 305 42 18 197 69 136 114 159 93
0 0 0 0 0 0 9 0 20 25 31 53 128 166 197 297 156 198 389 342 175 9 23 2 24 30 99 175 283 317 331 239 47 395 571 568 600 506 476 437 515 315 245 224 112 73 36 166 45 6 23 44 14 5
0 0 0 0 0 7 3 3 16 12 24 73 131 231 129 190 182 121 115 144 81 45 47 79 162 346 447 539 690 702 540 557 393 421 376 87 120 260 320 225 86 538 197 188 56 3 36 15 0 0 0 0 0 0
0 0 0 0 3 2 2 6 14 0 31 117 118 212 304 350 133 33 4 9 12 30 129 242 241 302 401 302 237 414 474 177 464 118 160 356 57 53 59 42 83 35 27 7 3 9 1 0 0 0 0 0 0 0
0 0 0 0 5 4 26 20 25 28 108 161 133 176 288 132 55 26 34 48 126 274 532 132 94 74 150 190 89 79 113 371 379 118 12 71 30 15 22 12 3 6 15 4 1 2 2 0 0 0 0 0 0 0
0 0 10 11 0 1 16 25 10 15 70 91 189 132 119 152 148 90 117 268 285 581 592 220 385 584 305 310 54 4 14 47 36 3 9 0 39 26 25 24 9 8 2 1 0 0 1 0 0 0 6 1 3 1
0 0 4 95 132 26 85 80 87 32 65 130 225 148 128 102 52 73 17 79 101 91 87 159 72 72 53 89 3 0 0 0 0 0 0 0 0 0 0 0 1 0 0 1 4 1 0 1 0 6 11 9 9 8
0 0 112 55 393 288 157 132 161 181 145 202 177 287 236 298 57 38 32 0 14 21 9 6 0 0 0 0 0 0 0 0 0 0 0 1 5 2 0 0 0 0 0 0 0 0 7 6 5 13 12 2 0 0
94 285 87 227 266 214 229 207 245 207 268 104 9 72 399 63 0 0 0 0 0 0 2 0 8 22 15 0 0 0 0 0 0 0 0 0 0 0 0 0 0 0 0 0 0 0 0 12 0 0 0 0 3 6
179 345 520 415 424 404 385 329 356 337 221 208 316 230 131 14 0 0 0 1 0 0 15 15 4 3 1 0 0 0 0 0 0 0 0 1 0 0 0 0 0 0 0 1 0 0 0 0 0 0 0 2 6 8
356 521 451 389 485 397 321 151 36 36 60 198 246 5 1 0 0 0 0 0 1 1 0 3 9 0 0 0 0 0 0 0 0 0 0 0 0 0 0 0 0 0 0 0 0 0 0 0 0 0 0 0 9 5
380 449 165 298 234 75 148 102 19 26 43 123 46 15 1 1 0 0 0 11 22 33 14 17 6 0 0 0 0 0 0 0 0 0 0 0 0 0 0 0 0 0 0 0 0 0 0 0 0 1 7 9 7 2
301 109 399 119 55 18 12 25 9 4 0 0 0 5 12 10 16 23 30 18 13 17 8 7 3 0 0 0 0 0 0 0 0 0 0 0 0 0 0 0 0 0 0 0 1 2 0 1 2 3 0 0 0 0
95 101 167 62 77 25 60 34 12 1 7 7 13 12 17 25 68 29 7 7 15 13 3 3 2 0 0 0 0 0 0 0 0 0 0 0 0 0 0 0 0 0 0 0 2 5 3 0 3 0 0 0 0 0
143 61 159 227 221 192 142 238 237 65 11 21 24 15 38 45 58 62 16 19 10 9 0 5 5 4 0 0 0 0 0 0 0 0 0 0 0 0 0 0 0 0 0 0 0 0 0 0 0 0 0 0 0 0
98 80 65 74 217 323 571 531 442 192 58 91 42 36 22 21 8 8 14 21 7 3 1 0 8 6 2 0 0 0 0 0 0 0 0 0 0 0 0 0 0 0 0 0 0 0 0 0 0 0 0 0 0 0

GFSWCAN_con_mucape_033.txt.gz
CAPE
8 21 22 22 39 40 62 89 96 84 63 67 57 68 74 58 50 182 135 262 107 10 0 0 0 2 2 2 1 29 0 5 18 149 7 20 0 0 0 0 0 23 0 2 1 4 0 359 58 820 1313 941 957 749
3 2 1 12 16 28 59 80 78 76 72 50 54 55 47 57 58 64 159 321 187 31 14 1 0 0 0 5 7 2 39 0 2 90 16 0 16 29 16 52 23 4 56 56 99 85 556 820 846 981 811 976 804 930
0 0 0 0 20 44 67 75 64 62 58 32 41 50 39 44 67 58 57 171 182 43 0 0 0 0 0 1 7 3 0 3 46 0 4 0 3 82 36 135 60 45 42 83 149 65 358 162 112 378 609 858 1548 1885
0 0 9 17 26 32 39 47 56 60 66 40 32 20 14 24 75 32 18 82 70 2 0 0 3 2 1 1 6 14 23 2 68 0 1 0 0 0 5 0 42 21 10 0 52 100 678 468 166 112 640 1649 1708 1745
0 0 0 0 0 1 11 14 19 23 27 28 22 29 17 6 65 27 0 0 36 1 0 0 0 9 31 36 0 50 13 3 75 0 7 0 0 0 65 0 10 0 0 11 5 3 23 332 453 873 1119 1082 1489 1634
0 0 0 0 0 0 3 8 9 11 16 24 24 23 40 47 28 0 4 5 93 46 0 0 0 0 50 6 5 17 0 0 0 0 0 0 0 8 0 0 0 0 0 0 1 38 44 198 364 401 453 531 771 907
0 0 0 0 0 0 0 0 1 7 16 0 13 16 13 22 0 0 0 0 0 0 0 0 1 7 16 168 124 43 0 0 0 86 1 4 9 14 0 0 0 72 0 1 5 14 38 100 163 138 0 27 117 81
0 0 0 0 0 0 0 0 0 0 0 0 0 0 0 0 0 0 0 0 1 3 0 0 2 8 95 102 55 50 20 28 52 6 0 0 3 30 13 10 30 0 0 28 5 8 6 1 24 1 0 13 7 28
0 0 0 0 0 0 0 0 0 0 0 0 0 0 0 0 0 0 0 0 0 0 0 0 0 0 2 70 73 69 79 0 0 0 0 0 0 1 0 0 0 9 72 18 4 0 1 0 0 0 1 0 2 0
0 0 0 0 0 0 0 0 0 0 0 0 0 0 0 0 0 0 0 0 0 0 0 0 0 0 0 0 1 0 32 1 0 0 0 0 0 0 0 0 0 0 0 0 0 1 12 17 8 34 50 33 11 16
0 0 0 0 0 0 0 0 0 0 0 6 0 0 0 2 0 0 0 0 0 0 0 0 0 0 36 0 1 0 20 0 0 0 0 0 0 0 0 0 0 0 0 0 0 7 14 13 26 44 52 51 42 19
0 0 0 0 0 0 0 0 0 0 0 0 0 0 0 0 0 0 0 1 7 0 0 0 0 0 0 9 0 23 0 0 0 0 0 0 0 0 0 0 0 0 0 6 0 0 0 0 0 4 8 9 24 10
0 0 0 0 0 0 0 0 0 0 0 0 0 12 3 0 1 0 0 0 0 0 0 0 0 0 0 0 0 0 0 0 0 0 0 0 0 0 0 0 0 44 0 66 68 43 54 66 67 53 17 6 0 0
0 0 0 0 0 0 0 0 0 0 0 9 21 3 29 31 3 5 4 0 0 6 18 19 0 0 0 0 5 0 0 0 0 0 0 0 0 32 29 22 15 71 70 69 91 58 84 56 43 51 99 48 45 25
0 0 0 0 0 0 0 0 0 6 0 107 30 37 75 87 84 47 6 9 31 75 25 73 49 48 65 76 51 0 0 0 0 0 0 0 0 0 44 105 74 95 92 99 60 67 86 90 77 41 9 2 48 68
0 0 0 0 0 0 0 0 64 68 563 95 71 83 67 44 72 40 73 4 37 24 176 32 40 31 0 0 0 0 0 0 0 0 0 0 0 36 89 163 165 119 57 49 46 30 24 59 146 109 70 23 12 3
0 0 0 0 0 0 0 0 535 182 68 71 93 137 82 81 68 51 59 31 57 1 0 0 0 0 0 0 0 0 0 0 0 0 0 0 44 59 144 215 139 17 3 23 108 21 14 48 189 120 12 22 11 18
0 0 0 0 0 0 60 67 96 66 66 121 128 152 155 92 90 78 24 10 0 0 0 0 6 0 0 1 0 0 0 0 0 4 27 43 101 227 251 193 287 219 72 108 75 1 4 12 13 12 13 48 18 15
0 0 0 0 0 0 17 6 74 56 70 93 173 175 117 104 104 29 15 0 0 0 6 13 0 0 0 0 0 0 0 6 0 12 43 125 111 178 251 214 254 246 178 37 21 49 1 0 0 10 1 3 10 3
0 0 0 0 0 0 5 46 284 36 35 148 175 156 79 38 50 90 18 4 1 0 0 0 0 59 43 31 46 37 81 123 52 60 96 26 39 75 171 81 108 51 15 11 1 1 0 0 0 0 0 0 0 0
0 0 0 0 0 0 3 13 44 52 35 158 193 147 341 78 60 0 7 9 0 16 54 104 51 22 10 1 0 0 0 129 140 1 71 161 323 244 115 38 7 0 0 0 0 0 0 0 0 0 0 0 0 0
0 0 0 57 0 0 77 275 24 64 203 271 204 112 114 47 33 36 1 12 28 89 108 39 91 24 0 0 0 0 0 0 0 0 0 0 0 0 3 6 3 0 0 0 0 0 0 0 0 0 0 0 0 0
0 0 68 170 17 3 110 488 46 85 165 268 389 133 150 193 232 22 67 72 118 60 21 27 88 125 34 37 0 0 0 0 0 0 0 0 0 0 0 0 0 0 0 0 0 0 0 0 0 0 0 0 0 0
0 0 63 207 280 110 562 394 401 441 285 239 263 103 171 257 58 27 24 24 4 4 0 19 4 0 0 6 0 0 0 0 0 0 0 0 0 0 0 0 0 0 0 0 0 0 0 0 0 0 0 0 0 0
0 0 205 178 673 473 318 390 365 390 177 173 196 6 43 62 29 27 0 0 0 0 0 0 0 19 13 0 0 0 0 0 0 0 0 0 0 0 0 0 0 0 0 0 0 0 0 0 0 0 0 0 0 0
169 445 148 181 469 460 262 213 243 299 255 233 224 298 239 26 2 0 0 0 0 0 14 35 18 15 0 1 0 0 0 0 0 0 0 0 0 0 0 0 0 0 0 0 0 0 0 0 0 0 0 0 0 0
141 127 635 943 213 254 412 193 139 50 55 176 314 238 182 2 0 0 0 31 45 46 95 56 34 0 0 0 0 0 0 0 0 0 0 0 0 0 0 0 0 0 0 0 0 0 0 0 0 0 0 0 0 0
0 0 223 294 345 306 176 21 10 17 15 210 57 2 6 6 0 0 11 55 43 70 103 81 0 0 0 0 0 0 0 0 0 0 0 0 0 0 0 0 0 0 0 0 0 0 0 0 0 0 0 0 0 0
81 4 58 121 14 8 1 0 6 0 0 5 0 0 4 5 2 19 34 47 83 68 7 4 0 0 0 0 0 0 0 0 0 0 0 0 0 0 0 0 0 0 0 0 0 0 0 0 0 0 0 0 0 0
192 73 539 36 1 0 0 0 0 0 0 0 0 0 2 10 4 24 10 18 27 9 0 0 0 0 0 0 0 0 0 0 0 0 0 0 0 0 0 0 0 0 0 0 0 0 0 0 0 0 0 0 0 0
393 318 191 73 34 48 24 0 0 0 1 3 0 0 0 16 36 23 49 6 4 0 0 0 0 0 0 0 0 0 0 0 0 0 0 0 0 0 0 0 0 0 0 0 0 0 0 0 0 0 0 0 0 0
349 48 127 234 212 171 145 216 175 58 3 29 15 1 5 4 52 12 2 0 0 0 0 0 0 0 0 0 0 0 0 0 0 0 0 0 0 0 0 0 0 0 0 0 0 0 0 0 0 0 0 0 0 0
27 68 79 230 376 399 536 572 396 220 47 190 71 38 13 9 0 0 0 0 0 0 0 0 0 0 0 0 0 0 0 0 0 0 0 0 0 0 0 0 0 0 0 0 0 0 0 0 0 0 0 0 0 0